Flag for Taiwan Weather past 2 weeks in Taichung, Taiwan

Now
79 °F

Light rain. Broken clouds.


Feels Like: 82 °F
Forecast: 78 / 86 °F
Wind: 8 mph from North

Location: Chiang Kai Shek

Current Time: Aug 31, 2015 at 3:33:30 PM

Latest Report: Aug 31, 2015 at 3:00 PM


Visibility: N/A

Pressure: 29.80 "Hg

Humidity: 79%

Dew point: 72 °F

Location of TaichungLocation

Historic Weather in Taichung — Graph

°F

Taichung temperature yesterday

Maximum temperature yesterday: 82 °F (at 12:30 PM)
Minimum temperature yesterday: 75 °F (at 8:30 PM)
Average temperature yesterday: 78 °F

Past Weeks' High & Low Weather Summary

 TemperatureHumidityPressure
High95 °F (Aug 20, 12:00 PM)100% (Aug 25, 5:30 AM)29.86 "Hg (Aug 25, 5:30 AM)
Low75 °F (Aug 25, 7:00 AM)46% (Aug 20, 4:00 PM)29.36 "Hg (Aug 23, 3:30 PM)
Average82 °F79%29.68 "Hg
* Reported Aug 16 2:00 PM — Aug 31 2:00 PM, Taichung, Weather by CustomWeather, © 2015

Note: Actual official high and low records may vary slightly from our data, if they occured in-between our weather recording intervals... More about our weather records

Advertising

Taichung weather history for previous 24 hours

 ConditionsComfort  
Time TempWeatherWind HumidityBarometerVisibility
2:00 PM
Mon, Aug 31
77 °FLight rain. Broken clouds.7 mph89%29.80 "Hg5 mi
1:30 PM79 °FSprinkles. Broken clouds.8 mph84%29.80 "Hg5 mi
1:00 PM79 °FSprinkles. Broken clouds.9 mph84%29.80 "Hg4 mi
12:30 PM77 °FSprinkles. Broken clouds.8 mph89%29.80 "Hg4 mi
12:00 PM77 °FSprinkles. Broken clouds.10 mph89%29.83 "Hg3 mi
11:30 AM77 °FSprinkles. Broken clouds.10 mph89%29.83 "Hg3 mi
11:00 AM77 °FSprinkles. Broken clouds.7 mph89%29.83 "Hg3 mi
10:30 AM77 °FRain showers. Fog.10 mph83%29.83 "Hg2 mi
10:00 AM77 °FSprinkles. Fog.10 mph89%29.83 "Hg2 mi
9:55 AM77 °FSprinkles. Fog.10 mph89%29.83 "Hg2 mi
9:30 AM77 °FSprinkles. Fog.13 mph89%29.83 "Hg3 mi
9:00 AM77 °FSprinkles. Broken clouds.13 mph89%29.83 "Hg4 mi
8:30 AM77 °FLight rain. Broken clouds.13 mph89%29.80 "Hg4 mi
8:00 AM77 °FRain. Broken clouds.13 mph89%29.80 "Hg2 mi
7:30 AM77 °FLight rain. Broken clouds.8 mph89%29.80 "Hg3 mi
7:00 AM77 °FLight rain. Broken clouds.9 mph83%29.80 "Hg3 mi
6:30 AM77 °FLight rain. Broken clouds.9 mph89%29.77 "Hg4 mi
5:00 AM77 °FLight rain. Partly cloudy.6 mph89%29.77 "HgN/A
4:30 AM77 °FLight rain. Partly cloudy.6 mph89%29.77 "HgN/A
4:00 AM75 °FLight rain. Partly cloudy.5 mph94%29.77 "HgN/A
3:30 AM75 °FLight rain. Partly cloudy.5 mph94%29.77 "HgN/A
3:00 AM75 °FLight rain. Partly cloudy.2 mph94%29.77 "HgN/A
2:30 AM77 °FLight rain. Partly cloudy.2 mph89%29.77 "HgN/A
2:00 AM77 °FLight rain. Partly cloudy.2 mph89%29.77 "HgN/A
1:30 AM77 °FLight rain. Partly cloudy.3 mph89%29.77 "HgN/A
1:00 AM77 °FLight rain. Partly cloudy.6 mph89%29.77 "HgN/A
12:30 AM77 °FLight rain. Partly cloudy.2 mph89%29.77 "HgN/A
12:00 AM77 °FLight rain. Partly cloudy.2 mph89%29.77 "Hg5 mi
11:30 PM
Sun, Aug 30
75 °FLight rain. Partly cloudy.5 mph94%29.80 "Hg4 mi
11:00 PM75 °FLight rain. Partly cloudy.3 mph94%29.80 "Hg4 mi
10:30 PM75 °FSprinkles. Partly cloudy.6 mph94%29.80 "Hg4 mi
10:00 PM75 °FLight rain. Partly cloudy.2 mph94%29.83 "Hg5 mi
9:30 PM75 °FLight rain. Passing clouds.6 mph94%29.80 "Hg5 mi
9:00 PM75 °FLight rain. Passing clouds.5 mph94%29.80 "Hg4 mi
8:30 PM75 °FSprinkles. Passing clouds.2 mph94%29.80 "Hg4 mi
8:00 PM77 °FSprinkles. Passing clouds.5 mph89%29.80 "Hg5 mi
7:30 PM77 °FSprinkles. Passing clouds.10 mph89%29.77 "Hg6 mi
7:00 PM79 °FSprinkles. Partly cloudy.7 mph84%29.77 "HgN/A
6:30 PM79 °FSprinkles. Partly cloudy.9 mph84%29.77 "HgN/A
6:00 PM79 °FSprinkles. Broken clouds.8 mph84%29.77 "HgN/A
5:30 PM79 °FSprinkles. Broken clouds.6 mph84%29.77 "HgN/A
5:00 PM79 °FSprinkles. Broken clouds.8 mph84%29.77 "HgN/A
4:30 PM79 °FSprinkles. Broken clouds.8 mph79%29.77 "HgN/A
4:00 PM79 °FSprinkles. Broken clouds.8 mph79%29.77 "HgN/A
3:30 PM79 °FSprinkles. Broken clouds.13 mph84%29.77 "HgN/A
3:00 PM81 °FSprinkles. Broken clouds.10 mph84%29.77 "Hg6 mi
Weather by CustomWeather, © 2015

See weather overviewHow to use our weather pages